TimeCDT,TemperatureF,Dew PointF,Humidity,Sea Level PressureIn,VisibilityMPH,Wind Direction,Wind SpeedMPH,Gust SpeedMPH,PrecipitationIn,Events,Conditions,WindDirDegrees,DateUTC
12:56 AM,75.9,72.0,87,29.97,10.0,SW,4.6,-,N/A,,Clear,220,2013-06-11 05:56:00
1:56 AM,77.0,72.0,84,29.96,10.0,SSW,4.6,-,N/A,,Clear,210,2013-06-11 06:56:00
2:56 AM,75.0,72.0,90,29.96,10.0,SSW,3.5,-,N/A,,Clear,200,2013-06-11 07:56:00
3:56 AM,75.0,73.0,94,29.97,10.0,South,5.8,-,N/A,,Clear,190,2013-06-11 08:56:00
4:56 AM,75.0,73.0,94,29.99,8.0,South,6.9,-,N/A,,Clear,190,2013-06-11 09:56:00
5:56 AM,73.9,72.0,93,30.01,7.0,South,5.8,-,N/A,,Clear,180,2013-06-11 10:56:00
6:56 AM,73.9,73.0,97,30.03,6.0,South,4.6,-,N/A,,Clear,180,2013-06-11 11:56:00
7:40 AM,77.0,73.4,89,30.05,8.0,SSW,4.6,-,N/A,,Partly Cloudy,200,2013-06-11 12:40:00
7:49 AM,77.0,73.4,89,30.06,8.0,SSW,6.9,-,N/A,,Mostly Cloudy,200,2013-06-11 12:49:00
7:56 AM,77.0,73.9,90,30.05,8.0,SSW,8.1,-,N/A,,Mostly Cloudy,200,2013-06-11 12:56:00
8:56 AM,79.0,73.9,84,30.06,10.0,SSW,8.1,-,N/A,,Overcast,210,2013-06-11 13:56:00
9:11 AM,78.8,73.4,83,30.07,10.0,SW,9.2,-,N/A,,Mostly Cloudy,220,2013-06-11 14:11:00
9:25 AM,80.6,73.4,79,30.07,10.0,SSW,9.2,-,N/A,,Scattered Clouds,200,2013-06-11 14:25:00
9:56 AM,82.0,72.0,71,30.06,10.0,SSW,8.1,-,N/A,,Scattered Clouds,200,2013-06-11 14:56:00
10:56 AM,84.9,73.0,67,30.05,10.0,SSW,4.6,-,N/A,,Partly Cloudy,200,2013-06-11 15:56:00
11:56 AM,88.0,71.1,57,30.05,10.0,SW,9.2,-,N/A,,Partly Cloudy,220,2013-06-11 16:56:00
12:56 PM,90.0,71.1,54,30.03,10.0,WSW,10.4,-,N/A,,Partly Cloudy,240,2013-06-11 17:56:00
1:56 PM,91.9,71.1,50,30.02,10.0,South,8.1,16.1,N/A,,Partly Cloudy,190,2013-06-11 18:56:00
2:56 PM,93.0,72.0,50,30.00,10.0,WSW,5.8,-,N/A,,Partly Cloudy,240,2013-06-11 19:56:00
3:56 PM,93.0,72.0,50,29.99,10.0,SW,6.9,-,N/A,,Partly Cloudy,230,2013-06-11 20:56:00
4:56 PM,91.9,72.0,52,29.98,10.0,SSW,9.2,-,N/A,,Partly Cloudy,200,2013-06-11 21:56:00
5:56 PM,93.0,73.0,52,29.97,10.0,South,11.5,-,N/A,,Scattered Clouds,170,2013-06-11 22:56:00
6:56 PM,91.0,73.0,55,29.96,10.0,South,6.9,-,N/A,,Scattered Clouds,180,2013-06-11 23:56:00
7:56 PM,88.0,73.9,63,29.96,10.0,South,3.5,-,N/A,,Scattered Clouds,180,2013-06-12 00:56:00
8:56 PM,84.9,75.0,72,29.98,10.0,SSW,3.5,-,N/A,,Scattered Clouds,200,2013-06-12 01:56:00
9:56 PM,84.0,75.0,74,29.99,10.0,South,5.8,-,N/A,,Partly Cloudy,190,2013-06-12 02:56:00
10:56 PM,82.0,75.0,79,30.00,10.0,SW,4.6,-,N/A,,Clear,220,2013-06-12 03:56:00
11:56 PM,81.0,75.0,82,30.00,10.0,South,3.5,-,N/A,,Clear,190,2013-06-12 04:56:00